Notices

What's New in latest Release from April 7th, 2021:

- Updated Glossary, including Speed of Maximum Gust, and Total Hourly Precipitation

- Updated national and regional climate services offices contacts and prices information

- Addition of station inventory lists for 1981-2010, 1971-2000, and 1961-1990 Normals.

If you haven't already, please take our survey and provide feedback about our website: https://eccc.sondage-survey.ca/f/LanguageSelection.aspx?s=442ca660-fcf1-47c0-95a9-59707d6fd709

Hourly Data Report for April 10, 2017

MIRAMICHI RCS
NEW BRUNSWICK

47°00'34.000" N
65°27'54.000" W
33.00 m
8100989
71744
ACQ

Download Data

Hourly Data (April 2017)
Hourly Data Report for April 10, 2017
TIME
LST
Temp Definition
°C
Dew Point Definition
°C
Rel Hum Definition
%
Precip. Amount Definition
mm

Wind Dir Definition
10's deg

Wind Spd Definition
km/h
Visibility Definition
km
Stn Press Definition
kPa
Hmdx Definition


Wind Chill Definition


Weather Definition


00:00 -1.1 -3.1 86 0.0 27 5   101.41   -3 LegendNANA
01:00 -0.8 -3.4 83 0.0 24 3   101.44   -2 LegendNANA
02:00 -1.6 -3.3 88 0.0 26 3   101.41   -3 LegendNANA
03:00 -1.3 -3.0 88 0.0   0   101.40     LegendNANA
04:00 -1.5 -3.0 90 0.0 28 4   101.40   -3 LegendNANA
05:00 -1.2 -3.3 85 0.0 23 7   101.40   -4 LegendNANA
06:00 1.2 -2.3 78 0.0 23 5   101.40     LegendNANA
07:00 1.6 -1.8 78 0.0 27 3   101.46     LegendNANA
08:00 3.0 -1.1 74 0.0 22 4   101.49     LegendNANA
09:00 5.7 -0.9 62 0.0 22 14   101.49     LegendNANA
10:00 7.0 -0.7 58 0.0 22 19   101.47     LegendNANA
11:00 8.6 -0.5 53 0.0 22 18   101.41     LegendNANA
12:00 10.9 -0.8 44 0.0 23 25   101.35     LegendNANA
13:00 13.4 -1.2 36 0.0 21 21   101.27     LegendNANA
14:00 13.7 -0.9 36 0.0 21 25   101.20     LegendNANA
15:00 13.9 0.1 39 0.0 22 24   101.14     LegendNANA
16:00 13.9 -0.6 37 0.0 21 28   101.10     LegendNANA
17:00 13.9 -0.3 38 0.0 21 23   101.06     LegendNANA
18:00 12.5 0.4 43 0.0 19 19   101.05     LegendNANA
19:00 11.7 0.0 44 0.0 18 11   101.04     LegendNANA
20:00 9.9 -0.6 48 0.0 20 19   101.03     LegendNANA
21:00 9.2 0.3 54 0.0 22 19   101.04     LegendNANA
22:00 8.6 0.7 58 0.0 22 25   101.06     LegendNANA
23:00 8.3 1.5 62 0.0 22 27   101.01     LegendNANA

Notes on Data Quality.

Legend

  • E = Estimated
  • M = Missing
  • NA = Not Available*
  • [empty] = Indicates an unobserved value
Date modified: